Wetterdaten: Montag, 06.06.2016
Datum Zeit Temp. Auen Feucht Auen Luftdruck Regen Richtung Richtung Windben
06.06.2016 00:00 14,7 C 84 % 1017,6 hPa 0,0 mm W 278 3,2 km/h (1 Bft)
06.06.2016 00:05 14,7 C 84 % 1017,6 hPa 0,0 mm W 278 3,2 km/h (1 Bft)
06.06.2016 00:10 14,7 C 84 % 1017,7 hPa 0,0 mm W 278 3,2 km/h (1 Bft)
06.06.2016 00:15 14,8 C 84 % 1017,6 hPa 0,0 mm W 278 3,2 km/h (1 Bft)
06.06.2016 00:20 14,8 C 84 % 1017,7 hPa 0,0 mm W 278 1,6 km/h (1 Bft)
06.06.2016 00:25 14,8 C 83 % 1017,8 hPa 0,0 mm W 278 3,2 km/h (1 Bft)
06.06.2016 00:30 14,8 C 83 % 1017,8 hPa 0,0 mm W 278 1,6 km/h (1 Bft)
06.06.2016 00:35 14,8 C 83 % 1017,7 hPa 0,0 mm W 279 0,0 km/h (0 Bft)
06.06.2016 00:40 14,7 C 83 % 1017,8 hPa 0,0 mm W 279 0,0 km/h (0 Bft)
06.06.2016 00:45 14,6 C 83 % 1017,8 hPa 0,0 mm W 279 0,0 km/h (0 Bft)
06.06.2016 00:50 14,6 C 83 % 1017,7 hPa 0,0 mm W 280 1,6 km/h (1 Bft)
06.06.2016 00:55 14,7 C 83 % 1017,8 hPa 0,0 mm W 279 0,0 km/h (0 Bft)
06.06.2016 01:00 14,7 C 83 % 1017,8 hPa 0,0 mm W 279 1,6 km/h (1 Bft)
06.06.2016 01:05 14,7 C 83 % 1017,9 hPa 0,0 mm W 279 1,6 km/h (1 Bft)
06.06.2016 01:10 14,7 C 83 % 1018,0 hPa 0,0 mm W 279 1,6 km/h (1 Bft)
06.06.2016 01:15 14,6 C 83 % 1018,0 hPa 0,0 mm W 279 0,0 km/h (0 Bft)
06.06.2016 01:20 14,5 C 83 % 1018,1 hPa 0,2 mm W 279 1,6 km/h (1 Bft)
06.06.2016 01:25 14,5 C 82 % 1018,3 hPa 0,0 mm O-SO 123 6,4 km/h (2 Bft)
06.06.2016 01:30 14,5 C 82 % 1018,2 hPa 0,0 mm O-SO 112 4,8 km/h (1 Bft)
06.06.2016 01:35 14,5 C 82 % 1018,1 hPa 0,2 mm O-SO 112 0,0 km/h (0 Bft)
06.06.2016 01:40 14,6 C 82 % 1018,1 hPa 0,4 mm O-SO 112 1,6 km/h (1 Bft)
06.06.2016 01:45 14,5 C 81 % 1018,2 hPa 0,4 mm O-SO 112 0,0 km/h (0 Bft)
06.06.2016 01:50 14,5 C 82 % 1018,2 hPa 0,2 mm O-SO 112 0,0 km/h (0 Bft)
06.06.2016 01:55 14,5 C 81 % 1018,1 hPa 0,2 mm O-SO 112 0,0 km/h (0 Bft)
06.06.2016 02:00 14,4 C 81 % 1018,1 hPa 0,0 mm O-SO 112 1,6 km/h (1 Bft)
06.06.2016 02:05 14,4 C 81 % 1018,2 hPa 0,0 mm O-SO 112 0,0 km/h (0 Bft)
06.06.2016 02:10 14,2 C 81 % 1018,2 hPa 0,0 mm O-SO 112 0,0 km/h (0 Bft)
06.06.2016 02:15 14,3 C 81 % 1018,2 hPa 0,0 mm O-SO 112 0,0 km/h (0 Bft)
06.06.2016 02:20 14,2 C 81 % 1018,2 hPa 0,0 mm O-SO 112 0,0 km/h (0 Bft)
06.06.2016 02:25 14,2 C 81 % 1018,2 hPa 0,0 mm O-SO 112 3,2 km/h (1 Bft)
06.06.2016 02:30 14,2 C 81 % 1018,2 hPa 0,0 mm O-SO 112 3,2 km/h (1 Bft)
06.06.2016 02:35 14,1 C 81 % 1018,1 hPa 0,0 mm O-SO 112 0,0 km/h (0 Bft)
06.06.2016 02:40 14,2 C 81 % 1018,0 hPa 0,0 mm O-SO 112 1,6 km/h (1 Bft)
06.06.2016 02:45 14,2 C 81 % 1017,9 hPa 0,0 mm O-SO 112 0,0 km/h (0 Bft)
06.06.2016 02:50 14,3 C 81 % 1017,7 hPa 0,2 mm O-SO 112 1,6 km/h (1 Bft)
06.06.2016 02:55 14,3 C 81 % 1017,9 hPa 0,0 mm O-SO 112 0,0 km/h (0 Bft)
06.06.2016 03:00 14,2 C 81 % 1017,8 hPa 0,2 mm O-SO 112 3,2 km/h (1 Bft)
06.06.2016 03:05 14,3 C 81 % 1017,7 hPa 0,0 mm SW 221 3,2 km/h (1 Bft)
06.06.2016 03:10 14,3 C 81 % 1017,6 hPa 0,0 mm SW 221 1,6 km/h (1 Bft)
06.06.2016 03:15 14,1 C 81 % 1017,6 hPa 0,0 mm SW 221 0,0 km/h (0 Bft)
06.06.2016 03:20 14,2 C 81 % 1017,6 hPa 0,0 mm SW 232 3,2 km/h (1 Bft)
06.06.2016 03:25 14,3 C 81 % 1017,5 hPa 0,0 mm W 264 6,4 km/h (2 Bft)
06.06.2016 03:30 14,3 C 81 % 1017,5 hPa 0,0 mm W 264 4,8 km/h (1 Bft)
06.06.2016 03:35 14,2 C 81 % 1017,4 hPa 0,0 mm W 264 1,6 km/h (1 Bft)
06.06.2016 03:40 14,2 C 81 % 1017,3 hPa 0,0 mm W 264 3,2 km/h (1 Bft)
06.06.2016 03:45 14,1 C 81 % 1017,3 hPa 0,0 mm W 265 6,4 km/h (2 Bft)
06.06.2016 03:50 14,1 C 81 % 1017,3 hPa 0,0 mm W 265 1,6 km/h (1 Bft)
06.06.2016 03:55 14,1 C 81 % 1017,3 hPa 0,0 mm W 265 3,2 km/h (1 Bft)
06.06.2016 04:00 13,9 C 81 % 1017,5 hPa 0,0 mm W 265 0,0 km/h (0 Bft)
06.06.2016 04:05 13,9 C 81 % 1017,5 hPa 0,0 mm W 265 0,0 km/h (0 Bft)
06.06.2016 04:10 13,9 C 81 % 1017,4 hPa 0,0 mm W 265 3,2 km/h (1 Bft)
06.06.2016 04:15 13,8 C 81 % 1017,5 hPa 0,0 mm W 265 4,8 km/h (1 Bft)
06.06.2016 04:20 13,8 C 81 % 1017,6 hPa 0,0 mm W 265 1,6 km/h (1 Bft)
06.06.2016 04:25 13,5 C 81 % 1017,6 hPa 0,0 mm W 265 1,6 km/h (1 Bft)
06.06.2016 04:30 13,2 C 81 % 1017,7 hPa 0,0 mm W 265 0,0 km/h (0 Bft)
06.06.2016 04:35 13,1 C 81 % 1017,7 hPa 0,0 mm W 265 0,0 km/h (0 Bft)
06.06.2016 04:40 13,2 C 81 % 1017,7 hPa 0,0 mm W 265 0,0 km/h (0 Bft)
06.06.2016 04:45 12,8 C 81 % 1017,8 hPa 0,0 mm W 265 1,6 km/h (1 Bft)
06.06.2016 04:50 12,9 C 81 % 1017,9 hPa 0,0 mm W 265 1,6 km/h (1 Bft)
06.06.2016 04:55 12,9 C 81 % 1017,9 hPa 0,0 mm W 265 1,6 km/h (1 Bft)
06.06.2016 05:00 12,7 C 82 % 1017,9 hPa 0,0 mm W 265 0,0 km/h (0 Bft)
06.06.2016 05:05 12,2 C 82 % 1018,0 hPa 0,0 mm W 265 0,0 km/h (0 Bft)
06.06.2016 05:10 12,0 C 82 % 1018,0 hPa 0,0 mm W 265 0,0 km/h (0 Bft)
06.06.2016 05:15 12,2 C 82 % 1018,1 hPa 0,0 mm W 265 0,0 km/h (0 Bft)
06.06.2016 05:20 11,7 C 82 % 1018,2 hPa 0,0 mm W 265 3,2 km/h (1 Bft)
06.06.2016 05:25 11,8 C 82 % 1018,2 hPa 0,0 mm W 265 0,0 km/h (0 Bft)
06.06.2016 05:30 11,9 C 82 % 1018,2 hPa 0,0 mm W 265 0,0 km/h (0 Bft)
06.06.2016 05:35 11,6 C 82 % 1018,3 hPa 0,0 mm W 265 0,0 km/h (0 Bft)
06.06.2016 05:40 11,4 C 82 % 1018,3 hPa 0,0 mm W 265 0,0 km/h (0 Bft)
06.06.2016 05:45 11,4 C 82 % 1018,3 hPa 0,0 mm W 265 0,0 km/h (0 Bft)
06.06.2016 05:50 11,5 C 82 % 1018,3 hPa 0,0 mm W 265 0,0 km/h (0 Bft)
06.06.2016 05:55 11,7 C 82 % 1018,4 hPa 0,0 mm W 265 0,0 km/h (0 Bft)
06.06.2016 06:00 11,7 C 82 % 1018,4 hPa 0,0 mm W 265 0,0 km/h (0 Bft)
06.06.2016 06:05 11,8 C 82 % 1018,4 hPa 0,0 mm W 265 0,0 km/h (0 Bft)
06.06.2016 06:10 11,7 C 82 % 1018,5 hPa 0,0 mm W 265 0,0 km/h (0 Bft)
06.06.2016 06:15 11,7 C 82 % 1018,5 hPa 0,0 mm W 265 0,0 km/h (0 Bft)
06.06.2016 06:20 11,9 C 82 % 1018,6 hPa 0,0 mm W 265 0,0 km/h (0 Bft)
06.06.2016 06:25 12,1 C 82 % 1018,6 hPa 0,0 mm W 265 0,0 km/h (0 Bft)
06.06.2016 06:30 12,4 C 82 % 1018,7 hPa 0,0 mm W 265 1,6 km/h (1 Bft)
06.06.2016 06:35 12,4 C 82 % 1018,7 hPa 0,0 mm W-SW 242 3,2 km/h (1 Bft)
06.06.2016 06:40 12,7 C 82 % 1018,7 hPa 0,0 mm W-SW 242 0,0 km/h (0 Bft)
06.06.2016 06:45 12,8 C 82 % 1018,7 hPa 0,0 mm W-SW 242 1,6 km/h (1 Bft)
06.06.2016 06:50 12,9 C 82 % 1018,8 hPa 0,0 mm W-SW 242 0,0 km/h (0 Bft)
06.06.2016 06:55 13,0 C 82 % 1018,8 hPa 0,0 mm W-SW 242 0,0 km/h (0 Bft)
06.06.2016 07:00 13,1 C 82 % 1018,9 hPa 0,0 mm W-SW 242 0,0 km/h (0 Bft)
06.06.2016 07:05 13,3 C 82 % 1018,9 hPa 0,0 mm W-SW 242 0,0 km/h (0 Bft)
06.06.2016 07:10 13,1 C 82 % 1018,9 hPa 0,0 mm W-SW 242 0,0 km/h (0 Bft)
06.06.2016 07:15 13,4 C 82 % 1018,9 hPa 0,0 mm W-SW 242 0,0 km/h (0 Bft)
06.06.2016 07:20 13,6 C 82 % 1019,0 hPa 0,0 mm W-SW 242 0,0 km/h (0 Bft)
06.06.2016 07:25 13,6 C 82 % 1019,0 hPa 0,0 mm W-SW 242 0,0 km/h (0 Bft)
06.06.2016 07:30 13,8 C 82 % 1019,0 hPa 0,0 mm W-SW 242 0,0 km/h (0 Bft)
06.06.2016 07:35 13,8 C 82 % 1019,0 hPa 0,0 mm W-SW 242 0,0 km/h (0 Bft)
06.06.2016 07:40 13,7 C 82 % 1019,1 hPa 0,0 mm W 259 0,0 km/h (0 Bft)
06.06.2016 07:45 13,9 C 82 % 1019,1 hPa 0,0 mm W-SW 240 0,0 km/h (0 Bft)
06.06.2016 07:50 14,1 C 82 % 1019,1 hPa 0,0 mm SW 234 3,2 km/h (1 Bft)
06.06.2016 07:55 14,3 C 81 % 1019,2 hPa 0,0 mm O 80 3,2 km/h (1 Bft)
06.06.2016 08:00 14,3 C 81 % 1019,2 hPa 0,0 mm S-SO 155 4,8 km/h (1 Bft)
06.06.2016 08:05 14,5 C 81 % 1019,2 hPa 0,0 mm S-SO 156 6,4 km/h (2 Bft)
06.06.2016 08:10 14,6 C 81 % 1019,2 hPa 0,0 mm S-SO 162 8,0 km/h (2 Bft)
06.06.2016 08:15 14,6 C 82 % 1019,3 hPa 0,0 mm S-SO 162 3,2 km/h (1 Bft)
06.06.2016 08:20 14,9 C 82 % 1019,3 hPa 0,0 mm O 84 4,8 km/h (1 Bft)
06.06.2016 08:25 15,3 C 82 % 1019,3 hPa 0,0 mm O 84 3,2 km/h (1 Bft)
06.06.2016 08:30 15,6 C 83 % 1019,4 hPa 0,0 mm O 100 3,2 km/h (1 Bft)
06.06.2016 08:35 15,6 C 84 % 1019,3 hPa 0,0 mm O 100 3,2 km/h (1 Bft)
06.06.2016 08:40 15,7 C 85 % 1019,3 hPa 0,0 mm O 96 3,2 km/h (1 Bft)
06.06.2016 08:45 16,0 C 85 % 1019,3 hPa 0,0 mm S-SO 154 3,2 km/h (1 Bft)
06.06.2016 08:50 16,1 C 86 % 1019,2 hPa 0,0 mm O-SO 115 3,2 km/h (1 Bft)
06.06.2016 08:55 16,3 C 86 % 1019,3 hPa 0,0 mm O 94 3,2 km/h (1 Bft)
06.06.2016 09:00 16,3 C 87 % 1019,2 hPa 0,0 mm O 94 3,2 km/h (1 Bft)
06.06.2016 09:05 16,6 C 86 % 1019,3 hPa 0,0 mm O-SO 120 3,2 km/h (1 Bft)
06.06.2016 09:10 17,0 C 86 % 1019,3 hPa 0,0 mm O 87 4,8 km/h (1 Bft)
06.06.2016 09:15 17,1 C 86 % 1019,2 hPa 0,0 mm O 86 3,2 km/h (1 Bft)
06.06.2016 09:20 17,3 C 86 % 1019,3 hPa 0,0 mm O 86 3,2 km/h (1 Bft)
06.06.2016 09:25 17,6 C 86 % 1019,2 hPa 0,0 mm O 86 3,2 km/h (1 Bft)
06.06.2016 09:30 17,7 C 85 % 1019,2 hPa 0,0 mm S-SO 157 6,4 km/h (2 Bft)
06.06.2016 09:35 17,8 C 85 % 1019,2 hPa 0,0 mm O 99 6,4 km/h (2 Bft)
06.06.2016 09:40 18,0 C 86 % 1019,2 hPa 0,0 mm NO 50 6,4 km/h (2 Bft)
06.06.2016 09:45 18,3 C 84 % 1019,2 hPa 0,0 mm O 83 8,0 km/h (2 Bft)
06.06.2016 09:50 18,3 C 83 % 1019,3 hPa 0,0 mm NO 51 8,0 km/h (2 Bft)
06.06.2016 09:55 18,4 C 82 % 1019,2 hPa 0,0 mm O-SO 111 8,0 km/h (2 Bft)
06.06.2016 10:00 18,6 C 83 % 1019,2 hPa 0,0 mm O-SO 103 6,4 km/h (2 Bft)
06.06.2016 10:05 18,9 C 85 % 1019,2 hPa 0,0 mm O 82 9,7 km/h (2 Bft)
06.06.2016 10:10 19,0 C 84 % 1019,2 hPa 0,0 mm O 95 4,8 km/h (1 Bft)
06.06.2016 10:15 19,1 C 83 % 1019,2 hPa 0,0 mm O 94 6,4 km/h (2 Bft)
06.06.2016 10:20 19,2 C 82 % 1019,2 hPa 0,0 mm O-SO 109 8,0 km/h (2 Bft)
06.06.2016 10:25 19,4 C 80 % 1019,1 hPa 0,0 mm S-SO 152 9,7 km/h (2 Bft)
06.06.2016 10:30 19,6 C 81 % 1019,1 hPa 0,0 mm O-SO 119 8,0 km/h (2 Bft)
06.06.2016 10:35 19,8 C 77 % 1019,1 hPa 0,0 mm O-SO 118 8,0 km/h (2 Bft)
06.06.2016 10:40 19,9 C 79 % 1019,1 hPa 0,0 mm O-SO 118 11,3 km/h (2 Bft)
06.06.2016 10:45 20,1 C 78 % 1019,1 hPa 0,0 mm S-SO 148 11,3 km/h (2 Bft)
06.06.2016 10:50 20,1 C 77 % 1019,1 hPa 0,0 mm S-SO 149 11,3 km/h (2 Bft)
06.06.2016 10:55 20,2 C 77 % 1019,1 hPa 0,0 mm O 96 16,1 km/h (3 Bft)
06.06.2016 11:00 20,3 C 77 % 1019,2 hPa 0,0 mm O 90 11,3 km/h (2 Bft)
06.06.2016 11:05 20,4 C 76 % 1019,1 hPa 0,0 mm O-NO 59 11,3 km/h (2 Bft)
06.06.2016 11:10 20,5 C 76 % 1019,2 hPa 0,0 mm SO 144 9,7 km/h (2 Bft)
06.06.2016 11:15 20,6 C 75 % 1019,1 hPa 0,0 mm O 94 9,7 km/h (2 Bft)
06.06.2016 11:20 20,6 C 78 % 1019,1 hPa 0,0 mm O-NO 77 12,9 km/h (3 Bft)
06.06.2016 11:25 20,8 C 76 % 1019,1 hPa 0,0 mm SO 128 11,3 km/h (2 Bft)
06.06.2016 11:30 20,7 C 76 % 1019,1 hPa 0,0 mm O 101 9,7 km/h (2 Bft)
06.06.2016 11:35 21,0 C 77 % 1019,1 hPa 0,0 mm SO 139 9,7 km/h (2 Bft)
06.06.2016 11:40 21,1 C 75 % 1019,1 hPa 0,0 mm O-SO 121 12,9 km/h (3 Bft)
06.06.2016 11:45 21,1 C 74 % 1019,1 hPa 0,0 mm O-SO 112 12,9 km/h (3 Bft)
06.06.2016 11:50 21,2 C 76 % 1019,0 hPa 0,0 mm S-SO 150 9,7 km/h (2 Bft)
06.06.2016 11:55 21,3 C 74 % 1019,0 hPa 0,0 mm O-NO 57 14,5 km/h (3 Bft)
06.06.2016 12:00 21,3 C 76 % 1019,0 hPa 0,0 mm O 90 11,3 km/h (2 Bft)
06.06.2016 12:05 21,5 C 74 % 1019,0 hPa 0,0 mm O-SO 105 12,9 km/h (3 Bft)
06.06.2016 12:10 21,7 C 72 % 1019,0 hPa 0,0 mm O-NO 76 8,0 km/h (2 Bft)
06.06.2016 12:15 21,7 C 72 % 1018,9 hPa 0,0 mm O-SO 113 11,3 km/h (2 Bft)
06.06.2016 12:20 21,7 C 73 % 1018,9 hPa 0,0 mm O-SO 108 11,3 km/h (2 Bft)
06.06.2016 12:25 21,8 C 72 % 1018,9 hPa 0,0 mm S-SO 157 11,3 km/h (2 Bft)
06.06.2016 12:30 22,1 C 72 % 1018,8 hPa 0,0 mm O-SO 105 11,3 km/h (2 Bft)
06.06.2016 12:35 22,0 C 74 % 1018,9 hPa 0,0 mm SO 142 11,3 km/h (2 Bft)
06.06.2016 12:40 22,2 C 73 % 1018,8 hPa 0,0 mm SO 146 12,9 km/h (3 Bft)
06.06.2016 12:45 22,0 C 69 % 1018,8 hPa 0,0 mm S-SO 150 12,9 km/h (3 Bft)
06.06.2016 12:50 22,1 C 72 % 1018,8 hPa 0,0 mm SO 137 14,5 km/h (3 Bft)
06.06.2016 12:55 22,5 C 72 % 1018,8 hPa 0,0 mm O 92 11,3 km/h (2 Bft)
06.06.2016 13:00 22,4 C 71 % 1018,7 hPa 0,0 mm O-SO 117 11,3 km/h (2 Bft)
06.06.2016 13:05 22,6 C 70 % 1018,7 hPa 0,0 mm SO 136 12,9 km/h (3 Bft)
06.06.2016 13:10 22,5 C 68 % 1018,5 hPa 0,0 mm SO 130 11,3 km/h (2 Bft)
06.06.2016 13:15 22,6 C 70 % 1018,4 hPa 0,0 mm S-SO 148 14,5 km/h (3 Bft)
06.06.2016 13:20 22,6 C 68 % 1018,5 hPa 0,0 mm SO 135 14,5 km/h (3 Bft)
06.06.2016 13:25 22,6 C 69 % 1018,4 hPa 0,0 mm O-SO 111 14,5 km/h (3 Bft)
06.06.2016 13:30 22,8 C 72 % 1018,2 hPa 0,0 mm O-SO 117 12,9 km/h (3 Bft)
06.06.2016 13:35 22,9 C 68 % 1018,2 hPa 0,0 mm O 81 12,9 km/h (3 Bft)
06.06.2016 13:40 22,6 C 65 % 1018,1 hPa 0,0 mm SO 126 11,3 km/h (2 Bft)
06.06.2016 13:45 23,1 C 65 % 1018,0 hPa 0,0 mm O-NO 72 14,5 km/h (3 Bft)
06.06.2016 13:50 23,2 C 71 % 1017,9 hPa 0,0 mm SO 128 8,0 km/h (2 Bft)
06.06.2016 13:55 22,8 C 65 % 1017,9 hPa 0,0 mm S 169 12,9 km/h (3 Bft)
06.06.2016 14:00 22,9 C 69 % 1017,9 hPa 0,0 mm N-NO 26 12,9 km/h (3 Bft)
06.06.2016 14:05 22,9 C 69 % 1017,8 hPa 0,0 mm SO 129 11,3 km/h (2 Bft)
06.06.2016 14:10 22,9 C 66 % 1017,8 hPa 0,0 mm SO 141 9,7 km/h (2 Bft)
06.06.2016 14:15 23,0 C 63 % 1017,7 hPa 0,0 mm SO 136 9,7 km/h (2 Bft)
06.06.2016 14:20 23,0 C 63 % 1017,7 hPa 0,0 mm S-SO 154 14,5 km/h (3 Bft)
06.06.2016 14:25 23,1 C 62 % 1017,6 hPa 0,0 mm O-SO 123 9,7 km/h (2 Bft)
06.06.2016 14:30 23,3 C 64 % 1017,5 hPa 0,0 mm O 94 11,3 km/h (2 Bft)
06.06.2016 14:35 23,2 C 62 % 1017,5 hPa 0,0 mm SO 143 12,9 km/h (3 Bft)
06.06.2016 14:40 23,3 C 66 % 1017,5 hPa 0,0 mm S-SO 167 12,9 km/h (3 Bft)
06.06.2016 14:45 23,3 C 63 % 1017,5 hPa 0,0 mm S 175 11,3 km/h (2 Bft)
06.06.2016 14:50 23,2 C 64 % 1017,5 hPa 0,0 mm S-SO 151 9,7 km/h (2 Bft)
06.06.2016 14:55 23,4 C 67 % 1017,4 hPa 0,0 mm SO 128 8,0 km/h (2 Bft)
06.06.2016 15:00 23,5 C 66 % 1017,5 hPa 0,0 mm O 83 12,9 km/h (3 Bft)
06.06.2016 15:05 23,6 C 63 % 1017,4 hPa 0,0 mm O-NO 67 12,9 km/h (3 Bft)
06.06.2016 15:10 23,5 C 65 % 1017,4 hPa 0,0 mm NO 51 9,7 km/h (2 Bft)
06.06.2016 15:15 23,6 C 65 % 1017,4 hPa 0,0 mm O-NO 75 8,0 km/h (2 Bft)
06.06.2016 15:20 23,6 C 66 % 1017,3 hPa 0,0 mm O-SO 103 9,7 km/h (2 Bft)
06.06.2016 15:25 23,5 C 61 % 1017,2 hPa 0,0 mm S-SO 161 9,7 km/h (2 Bft)
06.06.2016 15:30 23,6 C 62 % 1017,3 hPa 0,0 mm O-SO 102 12,9 km/h (3 Bft)
06.06.2016 15:35 23,6 C 59 % 1017,2 hPa 0,0 mm O 79 9,7 km/h (2 Bft)
06.06.2016 15:40 23,4 C 61 % 1017,3 hPa 0,0 mm O-SO 121 12,9 km/h (3 Bft)
06.06.2016 15:45 23,7 C 64 % 1017,2 hPa 0,0 mm S-SO 148 12,9 km/h (3 Bft)
06.06.2016 15:50 23,6 C 63 % 1017,1 hPa 0,0 mm O 98 14,5 km/h (3 Bft)
06.06.2016 15:55 23,7 C 63 % 1017,1 hPa 0,0 mm S-SO 156 12,9 km/h (3 Bft)
06.06.2016 16:00 23,7 C 60 % 1017,2 hPa 0,0 mm SO 141 11,3 km/h (2 Bft)
06.06.2016 16:05 23,6 C 63 % 1017,1 hPa 0,0 mm O-NO 71 9,7 km/h (2 Bft)
06.06.2016 16:10 23,6 C 61 % 1017,1 hPa 0,0 mm O-NO 57 12,9 km/h (3 Bft)
06.06.2016 16:15 23,6 C 60 % 1017,1 hPa 0,0 mm O-NO 78 14,5 km/h (3 Bft)
06.06.2016 16:20 23,2 C 57 % 1017,2 hPa 0,0 mm NO 55 11,3 km/h (2 Bft)
06.06.2016 16:25 23,5 C 62 % 1017,1 hPa 0,0 mm SO 130 8,0 km/h (2 Bft)
06.06.2016 16:30 23,6 C 63 % 1017,0 hPa 0,0 mm O-SO 121 9,7 km/h (2 Bft)
06.06.2016 16:35 23,4 C 58 % 1017,0 hPa 0,0 mm SO 128 11,3 km/h (2 Bft)
06.06.2016 16:40 23,6 C 59 % 1017,0 hPa 0,0 mm NO 49 11,3 km/h (2 Bft)
06.06.2016 16:45 23,6 C 55 % 1017,0 hPa 0,0 mm O-NO 75 9,7 km/h (2 Bft)
06.06.2016 16:50 23,7 C 59 % 1017,0 hPa 0,0 mm O 84 4,8 km/h (1 Bft)
06.06.2016 16:55 23,7 C 60 % 1017,0 hPa 0,0 mm SO 128 8,0 km/h (2 Bft)
06.06.2016 17:00 23,6 C 59 % 1017,0 hPa 0,0 mm SO 140 11,3 km/h (2 Bft)
06.06.2016 17:05 23,4 C 63 % 1016,9 hPa 0,0 mm NO 47 11,3 km/h (2 Bft)
06.06.2016 17:10 23,4 C 63 % 1017,0 hPa 0,0 mm O-NO 75 8,0 km/h (2 Bft)
06.06.2016 17:15 23,7 C 53 % 1017,0 hPa 0,0 mm NO 47 11,3 km/h (2 Bft)
06.06.2016 17:20 23,6 C 52 % 1017,1 hPa 0,0 mm O 96 12,9 km/h (3 Bft)
06.06.2016 17:25 23,6 C 55 % 1017,1 hPa 0,0 mm O-NO 78 17,7 km/h (3 Bft)
06.06.2016 17:30 23,7 C 58 % 1017,1 hPa 0,0 mm O-NO 65 12,9 km/h (3 Bft)
06.06.2016 17:35 23,2 C 54 % 1017,2 hPa 0,0 mm O 91 14,5 km/h (3 Bft)
06.06.2016 17:40 23,1 C 56 % 1017,2 hPa 0,0 mm O-NO 61 16,1 km/h (3 Bft)
06.06.2016 17:45 23,1 C 56 % 1017,2 hPa 0,0 mm NO 37 14,5 km/h (3 Bft)
06.06.2016 17:50 23,2 C 54 % 1017,1 hPa 0,0 mm O 80 14,5 km/h (3 Bft)
06.06.2016 17:55 23,1 C 54 % 1017,2 hPa 0,0 mm O 98 19,3 km/h (3 Bft)
06.06.2016 18:00 23,1 C 53 % 1017,1 hPa 0,0 mm O 96 14,5 km/h (3 Bft)
06.06.2016 18:05 23,1 C 52 % 1017,1 hPa 0,0 mm N 11 17,7 km/h (3 Bft)
06.06.2016 18:10 23,0 C 53 % 1017,1 hPa 0,0 mm O-NO 74 14,5 km/h (3 Bft)
06.06.2016 18:15 23,1 C 54 % 1017,1 hPa 0,0 mm O 89 11,3 km/h (2 Bft)
06.06.2016 18:20 23,0 C 53 % 1017,2 hPa 0,0 mm O 82 16,1 km/h (3 Bft)
06.06.2016 18:25 22,8 C 56 % 1017,1 hPa 0,0 mm NO 44 12,9 km/h (3 Bft)
06.06.2016 18:30 22,8 C 57 % 1017,3 hPa 0,0 mm N-NO 24 24,1 km/h (4 Bft)
06.06.2016 18:35 22,6 C 60 % 1017,3 hPa 0,0 mm NO 42 17,7 km/h (3 Bft)
06.06.2016 18:40 22,0 C 61 % 1017,5 hPa 0,0 mm NO 38 16,1 km/h (3 Bft)
06.06.2016 18:45 21,4 C 64 % 1017,6 hPa 0,0 mm O-NO 72 17,7 km/h (3 Bft)
06.06.2016 18:50 21,3 C 66 % 1017,6 hPa 0,0 mm O-NO 78 16,1 km/h (3 Bft)
06.06.2016 18:55 21,1 C 64 % 1017,6 hPa 0,0 mm O-SO 112 20,9 km/h (4 Bft)
06.06.2016 19:00 21,1 C 64 % 1017,7 hPa 0,0 mm N 11 19,3 km/h (3 Bft)
06.06.2016 19:05 21,0 C 65 % 1017,8 hPa 0,0 mm N-NO 13 16,1 km/h (3 Bft)
06.06.2016 19:10 20,9 C 62 % 1017,8 hPa 0,0 mm O 96 16,1 km/h (3 Bft)
06.06.2016 19:15 20,9 C 62 % 1017,9 hPa 0,0 mm N 11 16,1 km/h (3 Bft)
06.06.2016 19:20 20,8 C 62 % 1018,0 hPa 0,0 mm NO 36 12,9 km/h (3 Bft)
06.06.2016 19:25 20,6 C 62 % 1018,2 hPa 0,0 mm O-SO 118 11,3 km/h (2 Bft)
06.06.2016 19:30 20,4 C 62 % 1018,2 hPa 0,0 mm N-NO 32 12,9 km/h (3 Bft)
06.06.2016 19:35 20,3 C 62 % 1018,3 hPa 0,0 mm NO 34 12,9 km/h (3 Bft)
06.06.2016 19:40 19,9 C 65 % 1018,4 hPa 0,0 mm O-SO 116 8,0 km/h (2 Bft)
06.06.2016 19:45 19,7 C 66 % 1018,3 hPa 0,0 mm NO 49 3,2 km/h (1 Bft)
06.06.2016 19:50 19,6 C 67 % 1018,3 hPa 0,0 mm O-SO 121 4,8 km/h (1 Bft)
06.06.2016 19:55 19,4 C 68 % 1018,4 hPa 0,0 mm SO 143 4,8 km/h (1 Bft)
06.06.2016 20:00 19,3 C 68 % 1018,3 hPa 0,0 mm SO 143 3,2 km/h (1 Bft)
06.06.2016 20:05 19,3 C 69 % 1018,2 hPa 0,0 mm SO 143 1,6 km/h (1 Bft)
06.06.2016 20:10 19,2 C 71 % 1018,1 hPa 0,0 mm O 99 4,8 km/h (1 Bft)
06.06.2016 20:15 18,8 C 74 % 1018,1 hPa 0,0 mm NO 52 4,8 km/h (1 Bft)
06.06.2016 20:20 18,7 C 74 % 1018,0 hPa 0,0 mm S-SO 155 4,8 km/h (1 Bft)
06.06.2016 20:25 18,8 C 72 % 1018,1 hPa 0,0 mm S-SO 157 4,8 km/h (1 Bft)
06.06.2016 20:30 18,9 C 71 % 1018,1 hPa 0,0 mm S-SO 157 1,6 km/h (1 Bft)
06.06.2016 20:35 18,7 C 73 % 1018,3 hPa 0,0 mm S-SO 157 1,6 km/h (1 Bft)
06.06.2016 20:40 18,3 C 75 % 1018,3 hPa 0,0 mm S-SO 157 1,6 km/h (1 Bft)
06.06.2016 20:45 18,1 C 76 % 1018,4 hPa 0,0 mm S-SO 157 1,6 km/h (1 Bft)
06.06.2016 20:50 17,9 C 78 % 1018,5 hPa 0,0 mm S-SO 157 1,6 km/h (1 Bft)
06.06.2016 20:55 17,7 C 77 % 1018,6 hPa 0,0 mm NO 54 3,2 km/h (1 Bft)
06.06.2016 21:00 17,6 C 77 % 1018,7 hPa 0,0 mm NO 54 1,6 km/h (1 Bft)
06.06.2016 21:05 17,4 C 77 % 1018,7 hPa 0,0 mm SO 124 3,2 km/h (1 Bft)
06.06.2016 21:10 17,4 C 74 % 1018,7 hPa 0,0 mm SO 141 4,8 km/h (1 Bft)
06.06.2016 21:15 17,1 C 77 % 1018,7 hPa 0,0 mm N-NO 28 4,8 km/h (1 Bft)
06.06.2016 21:20 17,2 C 76 % 1018,8 hPa 0,0 mm N-NO 20 4,8 km/h (1 Bft)
06.06.2016 21:25 16,9 C 77 % 1018,8 hPa 0,0 mm N-NO 20 3,2 km/h (1 Bft)
06.06.2016 21:30 16,8 C 77 % 1018,8 hPa 0,0 mm N-NO 20 0,0 km/h (0 Bft)
06.06.2016 21:35 16,6 C 77 % 1019,0 hPa 0,0 mm N-NO 20 0,0 km/h (0 Bft)
06.06.2016 21:40 16,6 C 78 % 1019,1 hPa 0,0 mm N-NO 20 0,0 km/h (0 Bft)
06.06.2016 21:45 16,3 C 79 % 1019,1 hPa 0,0 mm SO 127 1,6 km/h (1 Bft)
06.06.2016 21:50 16,1 C 78 % 1019,1 hPa 0,0 mm SO 127 0,0 km/h (0 Bft)
06.06.2016 21:55 15,9 C 80 % 1019,2 hPa 0,0 mm SO 127 0,0 km/h (0 Bft)
06.06.2016 22:00 15,1 C 82 % 1019,2 hPa 0,0 mm SO 127 0,0 km/h (0 Bft)
06.06.2016 22:05 14,8 C 84 % 1019,2 hPa 0,0 mm SO 127 0,0 km/h (0 Bft)
06.06.2016 22:10 14,9 C 83 % 1019,2 hPa 0,0 mm SO 127 0,0 km/h (0 Bft)
06.06.2016 22:15 14,4 C 86 % 1019,3 hPa 0,0 mm SO 127 1,6 km/h (1 Bft)
06.06.2016 22:20 14,6 C 86 % 1019,3 hPa 0,0 mm SO 129 0,0 km/h (0 Bft)
06.06.2016 22:25 14,8 C 85 % 1019,4 hPa 0,0 mm SO 129 0,0 km/h (0 Bft)
06.06.2016 22:30 14,7 C 85 % 1019,4 hPa 0,0 mm SO 129 0,0 km/h (0 Bft)
06.06.2016 22:35 14,2 C 85 % 1019,4 hPa 0,0 mm SO 129 0,0 km/h (0 Bft)
06.06.2016 22:40 13,9 C 87 % 1019,5 hPa 0,0 mm SO 129 0,0 km/h (0 Bft)
06.06.2016 22:45 13,9 C 87 % 1019,4 hPa 0,0 mm SO 129 0,0 km/h (0 Bft)
06.06.2016 22:50 13,9 C 87 % 1019,4 hPa 0,0 mm SO 129 0,0 km/h (0 Bft)
06.06.2016 22:55 13,9 C 87 % 1019,3 hPa 0,0 mm SO 129 0,0 km/h (0 Bft)
06.06.2016 23:00 13,9 C 87 % 1019,3 hPa 0,0 mm SO 129 0,0 km/h (0 Bft)
06.06.2016 23:05 14,0 C 86 % 1019,2 hPa 0,0 mm SO 129 0,0 km/h (0 Bft)
06.06.2016 23:10 13,8 C 87 % 1019,2 hPa 0,0 mm SO 129 0,0 km/h (0 Bft)
06.06.2016 23:15 13,7 C 87 % 1019,2 hPa 0,0 mm SO 129 0,0 km/h (0 Bft)
06.06.2016 23:20 13,4 C 87 % 1019,3 hPa 0,0 mm SO 129 0,0 km/h (0 Bft)
06.06.2016 23:25 13,1 C 87 % 1019,2 hPa 0,0 mm SO 129 0,0 km/h (0 Bft)
06.06.2016 23:30 13,2 C 88 % 1019,2 hPa 0,0 mm SO 129 0,0 km/h (0 Bft)
06.06.2016 23:35 13,1 C 87 % 1019,2 hPa 0,0 mm SO 129 0,0 km/h (0 Bft)
06.06.2016 23:40 12,9 C 88 % 1019,2 hPa 0,0 mm SO 129 0,0 km/h (0 Bft)
06.06.2016 23:45 12,8 C 88 % 1019,3 hPa 0,0 mm SO 129 1,6 km/h (1 Bft)
06.06.2016 23:50 12,8 C 88 % 1019,4 hPa 0,0 mm SO 129 0,0 km/h (0 Bft)
06.06.2016 23:55 12,8 C 88 % 1019,4 hPa 0,0 mm SO 129 1,6 km/h (1 Bft)
_ Min-Zeit 05:40 17:20 17:05 - - - 00:35
Minimum _ 11,3 C 52 % 1016,9 hPa - - - 0,0 km/h (0 Bft)
_ Max-Zeit 15:20 23:30 22:40 01:40 - - 18:30
Maximum _ 23,8 C 88 % 1019,5 hPa 0,4 mm - - 24,1 km/h
O (4 Bft)
Durchschnitt _ 17,8 C 75 % 1018,3 hPa #2,0 mm W - 6,0 km/h (2 Bft)